Location: Tr�vern
(48.0333°N, 4.6000°W)
Time: 17:22:21
(UTC+00:00)

Cosmos 1464 Rocket - Pass Details

Date: 14 July 2020
Orbit: 951 x 1002 km, 82.9° (Epoch: 13 August)

Event Time Altitude Azimuth Distance (km) Brightness Sun altitude
Exits shadow 03:44:07 - 190° (S) 3,580 6.5 -7.3°
Reaches altitude 10° 03:46:17 10° 191° (SSW) 2,768 5.9 -7.0°
Maximum altitude 03:52:40 81° 279° (W) 1,019 4.1 -6.2°
Drops below altitude 10° 03:59:04 10° 7° (N) 2,772 7.2 -5.4°
Sets 04:01:36 0° 9° (N) 3,719 7.9 -5.1°
